Weather Roundup
Issued by NWS

Home | Current Version | Previous Version | Graphics & Text | Print | Product List | Glossary Off
Versions: 1 2 3 4 5 6 7 8 9 10 11 12 13 14 15 16 17 18 19 20 21 22 23 24 25 26 27 28 29 30 31 32 33 34 35 36 37 38 39 40 41 42 43 44 45 46 47 48 49 50

592
NZUS93 KARX 290110
HRRWXR

CURRENT HOURLY OBSERVATIONS ACROSS
MUCH OF THE UPPER MISSISSIPPI VALLEY
NATIONAL WEATHER SERVICE LA CROSSE WI
800 PM CDT TUE MAR 28 2017


...SOUTHEAST MINNESOTA...


CITY           SKY/WX    TMP DP  RH WIND       PRES   REMARKS
ROCHESTER      CLEAR     50  36  58 E7        30.15R
ROCHESTER/MAYO FAIR      55  36  48 E3        30.16R
WINONA         CLEAR     52  37  58 CALM      30.16R
AUSTIN         CLEAR     50  37  62 NE5       30.14R
ALBERT LEA     CLEAR     52  36  54 E6        30.14R
DODGE CENTER   CLEAR     46  39  76 E6        30.15R
PRESTON        CLEAR     51  34  51 E6        30.16R
OWATONNA       CLEAR     52  36  54 NE5       30.15R
FARIBAULT      PTCLDY    52  36  54 E3        30.16R
$$

...ELSEWHERE IN MINNESOTA...


CITY           SKY/WX    TMP DP  RH WIND       PRES   REMARKS
MINNEAPOLIS    PTCLDY    58  30  34 E7        30.16R
INTNL FALLS    CLEAR     45  26  47 NE3       30.21R
DULUTH         PTCLDY    41  30  65 SE7       30.18R
RED WING       CLEAR     54  27  35 CALM      30.15R
REDWOOD FALLS  MOCLDY    57  32  38 E3        30.14R
MANKATO        PTCLDY    53  35  50 SE5       30.16R
WORTHINGTON    PTCLDY    49  39  68 E6        30.15R
FAIRMONT       MOCLDY    52  40  63 SE7       30.15R
$$

...SOUTHWEST WISCONSIN...


CITY           SKY/WX    TMP DP  RH WIND       PRES   REMARKS
LA CROSSE      CLEAR     52  39  61 CALM      30.15R
PRAIRIE DU CHI CLEAR     51  38  61 CALM      30.14S
BOSCOBEL       CLEAR     50  38  63 CALM      30.15R
LONE ROCK      CLEAR     49  38  65 NE6       30.16R
PLATTEVILLE    CLEAR     47  42  81 CALM      30.16R
FORT MC COY    CLEAR     49  35  57 CALM      30.17R
CAMP DOUGLAS   PTCLDY    45  36  70 E8        30.16R
MAUSTON-NEW LI CLEAR     53  34  48 SE3       30.16R
VIROQUA        FAIR      49  35  59 CALM      30.15R
WIS DELLS      CLEAR     49  32  52 E5        30.17R
$$

...ELSEWHERE IN WISCONSIN...


CITY           SKY/WX    TMP DP  RH WIND       PRES   REMARKS
MILWAUKEE      FOG       36  34  92 NE9       30.21R VSB 1/8 WCI  29
MADISON        CLEAR     48  37  65 NE7       30.16R
GREEN BAY      CLEAR     42  37  82 E5        30.21R
EAU CLAIRE     CLEAR     53  28  38 E6        30.16R
BLACK RVR FLS  FAIR      45  28  50 CALM      30.16R
MEDFORD        CLEAR     46  33  62 CALM      30.16S
WAUSAU         CLEAR     50  27  40 S5        30.15R
WIS RAPIDS     CLEAR     50  29  44 SE6       30.19R
MARSHFIELD     CLEAR     49  35  58 CALM      30.16R
RICE LAKE      CLEAR     49  27  42 CALM      30.17R
$$

...NORTHEAST IOWA...


CITY           SKY/WX    TMP DP  RH WIND       PRES   REMARKS
WATERLOO       CLEAR     47  37  68 E8        30.14R
DUBUQUE        CLEAR     43  38  82 CALM      30.15S
DECORAH        CLEAR     52  37  58 E5        30.14R
MASON CITY     CLEAR     47  37  68 E7        30.15R
CHARLES CITY   CLEAR     50  37  62 E7        30.15R
OELWEIN        CLEAR     48  39  71 E8        30.16R
$$

...ELSEWHERE IN IOWA...


CITY           SKY/WX    TMP DP  RH WIND       PRES   REMARKS
DES MOINES     CLOUDY    51  43  74 E5        30.14R
IOWA CITY      CLOUDY    51  42  71 E10       30.16R
FORT DODGE     CLOUDY    52  39  62 S6        30.14R
MARSHALLTOWN   CLEAR     46  42  86 E3        30.14R
CEDAR RAPIDS   CLOUDY    47  43  86 E5        30.14R
$$

...NORTHERN ILLINOIS...


CITY           SKY/WX    TMP DP  RH WIND       PRES   REMARKS
CHICAGO-OHARE  CLOUDY    42  36  79 NE5       30.18R
CHICAGO-MIDWAY MOCLDY    43  37  79 NE7       30.18R
MOLINE         CLOUDY    48  39  71 NE8       30.16R
ROCKFORD       PTCLDY    49  37  63 E10       30.19R
PEORIA         CLOUDY    50  43  77 NE8       30.14S
$$

NOTE: "FAIR" INDICATES FEW OR NO CLOUDS BELOW 12,000 FEET WITH NO
SIGNIFICANT WEATHER AND/OR OBSTRUCTIONS TO VISIBILITY. WIND
SPEEDS ARE IN MILES-PER-HOUR.




USA.gov is the U.S. government's official web portal to all federal, state and local government web resources and services.